マスター彗星

C/2016 N4 ( MASTER )

English version
Home page
Updated on June 15, 2021

---------------------------------------------------------------------

・ プロフィール

発見日 2016年7月15日
発見光度 16.8等
発見者 Mobile Astronomical System of the Telescope-Robots (MASTER)

・ 写真集

・ 軌道要素

Epoch 2017 Sept. 4.0 TT = JDT 2458000.5
T 2017 Sept. 16.59586 TT                                Rudenko
q   3.1991213            (2000.0)            P               Q
z  +0.0001874      Peri.   55.95500     +0.58263587     -0.80665623
 +/-0.0000004      Node   354.03136     -0.14120903     +0.01973041
e   0.9994004      Incl.   72.55727     +0.80037207     +0.59069149
From 2085 observations 2015 Sept. 11-2020 Mar. 26, mean residual 0".7.

・ 星図

・ 光度変化

        m1 = 6.3 + 5 logΔ + 10.0 log r           [    ,-228]  (              〜2017年 1月31日)
        m1 = 9.0 + 5 logΔ +  6.0 log r(t + 120)  [-228, 535]  (2017年 1月31日〜2019年 3月 5日)
        m1 = 6.3 + 5 logΔ + 10.0 log r           [ 535,    ]  (2019年 3月 5日〜              )

---------------------------------------------------------------------

軌道要素はM.P.E.C. 2021-F20に掲載されたものです。
星図はステラナビゲータ Ver.10 (アストロアーツ) で作成したものです。
光度グラフはComet for Windowsで作成したものです。

---------------------------------------------------------------------

Copyright(C) Seiichi Yoshida (comet@aerith.net). All rights reserved.